Rolla, MO

4:09 AM CST on February 25, 2018 (GMT -0600)
Rolla National

Weather History for KVIH - February, 2013

Change the Weather History Date:

Monday, February 25, 2013

  Actual Average Record
Temperature  
Mean Temperature 37 °F 39 °F  
Max Temperature 43 °F 49 °F 76 °F (1981)
Min Temperature 30 °F 28 °F 1 °F (1965)
Degree Days  
Heating Degree Days 28 26  
Month to date heating degree days 756 745  
Since 1 July heating degree days 3484 3713  
Cooling Degree Days 0 0  
Month to date cooling degree days 0 0  
Year to date cooling degree days 0 0  
Moisture  
Dew Point 28 °F    
Average Humidity 75    
Maximum Humidity 96    
Minimum Humidity 53    
Precipitation  
Precipitation 0.56 in 0.07 in 1.95 in (1899)
Month to date precipitation 1.94 1.70  
Year to date precipitation 4.41 3.87  
Sea Level Pressure  
Sea Level Pressure 29.78 in    
Wind  
Wind Speed 17 mph (ENE)    
Max Wind Speed 31 mph    
Max Gust Speed 43 mph    
Visibility 7 miles    
Events Fog , Rain , Snow , Thunderstorm    
T = Trace of Precipitation, MM = Missing Value Source: NWS Daily Summary

Daily Weather History Graph

Daily Weather History Graph

Search for Another Location

Airport or City:

Trip Planner

Search our weather history database for the weather conditions in past years. The results will help you decide how hot, cold, wet, or windy it might be!

Date:

Astronomy

Feb. 25, 2013 Rise Set
Actual Time 6:44 AM CST 5:56 PM CST
Civil Twilight 6:17 AM CST 6:23 PM CST
Nautical Twilight 5:46 AM CST 6:53 PM CST
Astronomical Twilight 5:16 AM CST 7:24 PM CST
Moon 6:09 PM CST 6:15 AM CST
Length of Visible Light 12h 05m
Length of Day
11h 12m
Full, 100% of the Moon is Illuminated
Feb 25
Full
Feb 25
Full
Mar 4
Last Quarter
Mar 11
New
Mar 19
First Quarter

Hourly Weather History & Observations

Time (CST) Temp. Windchill Dew Point Humidity Pressure Visibility Wind Dir Wind Speed Gust Speed Precip Events Conditions
12:53 AM 33.1 °F 24.4 °F 26.1 °F 75% 30.00 in 10.0 mi East 11.5 mph - N/A   Clear
1:53 AM 33.1 °F 23.9 °F 26.1 °F 75% 29.99 in 10.0 mi East 12.7 mph - N/A   Clear
2:53 AM 32.0 °F 22.5 °F 25.0 °F 75% 29.97 in 10.0 mi East 12.7 mph - N/A   Clear
3:53 AM 30.9 °F 22.2 °F 25.0 °F 79% 29.97 in 10.0 mi East 10.4 mph - N/A   Clear
4:53 AM 30.0 °F 20.0 °F 25.0 °F 82% 29.95 in 10.0 mi East 12.7 mph - N/A   Clear
5:53 AM 30.0 °F 20.5 °F 25.0 °F 82% 29.95 in 10.0 mi East 11.5 mph - N/A   Clear
6:53 AM 30.0 °F 19.5 °F 25.0 °F 82% 29.94 in 10.0 mi East 13.8 mph - N/A   Clear
7:53 AM 32.0 °F 22.1 °F 25.0 °F 75% 29.93 in 10.0 mi East 13.8 mph - N/A   Clear
8:53 AM 36.0 °F 27.1 °F 26.1 °F 67% 29.93 in 10.0 mi East 13.8 mph - N/A   Clear
9:53 AM 39.0 °F 31.0 °F 25.0 °F 57% 29.93 in 10.0 mi East 13.8 mph 21.9 mph N/A   Clear
10:53 AM 39.9 °F 32.1 °F 25.0 °F 55% 29.91 in 10.0 mi East 13.8 mph - N/A   Clear
11:53 AM 43.0 °F 35.4 °F 26.1 °F 51% 29.88 in 10.0 mi East 16.1 mph 24.2 mph N/A   Clear
12:53 PM 43.0 °F 35.1 °F 26.1 °F 51% 29.81 in 10.0 mi East 17.3 mph - N/A   Scattered Clouds
1:53 PM 43.0 °F 36.0 °F 27.0 °F 53% 29.79 in 10.0 mi ENE 13.8 mph 24.2 mph N/A   Mostly Cloudy
2:53 PM 42.1 °F 33.6 °F 27.0 °F 55% 29.75 in 10.0 mi ENE 18.4 mph 24.2 mph N/A   Overcast
3:53 PM 42.1 °F 34.9 °F 27.0 °F 55% 29.76 in 10.0 mi NE 13.8 mph - N/A   Overcast
4:14 PM 41.0 °F 33.5 °F 28.4 °F 61% 29.71 in 10.0 mi NNE 13.8 mph - N/A Thunderstorm Overcast
4:29 PM 41.0 °F 31.9 °F 28.4 °F 61% 29.70 in 10.0 mi NE 19.6 mph 23.0 mph N/A   Overcast
4:53 PM 39.0 °F 29.6 °F 28.9 °F 67% 29.71 in 10.0 mi NNE 18.4 mph 24.2 mph 0.00 in   Overcast
5:53 PM 37.9 °F 28.9 °F 28.0 °F 68% 29.76 in 8.0 mi NNE 16.1 mph 25.3 mph 0.00 in Snow Light Snow
6:32 PM 35.6 °F 24.0 °F 28.4 °F 75% 29.73 in 5.0 mi NE 23.0 mph 28.8 mph 0.00 in Snow Light Snow
6:53 PM 34.0 °F 23.4 °F 30.0 °F 85% 29.75 in 2.0 mi NE 17.3 mph 27.6 mph 0.01 in Snow Light Snow
7:00 PM 33.8 °F 22.2 °F 30.2 °F 87% 29.72 in 1.2 mi NE 20.7 mph 33.4 mph 0.01 in Snow Light Snow
7:16 PM 33.8 °F 21.3 °F 30.2 °F 87% 29.69 in 1.0 mi NE 24.2 mph 32.2 mph 0.03 in Snow Light Snow
7:39 PM 33.8 °F 21.6 °F 30.2 °F 87% 29.69 in 0.8 mi NE 23.0 mph 29.9 mph 0.06 in Snow Light Snow
7:53 PM 32.0 °F 18.4 °F 30.9 °F 96% 29.68 in 0.5 mi NE 26.5 mph 34.5 mph 0.08 in Fog , Snow Snow
8:16 PM 32.0 °F 17.9 °F 30.2 °F 93% 29.65 in 1.0 mi NE 28.8 mph 40.3 mph 0.06 in Snow Light Snow
8:53 PM 33.1 °F 20.1 °F 30.9 °F 92% 29.66 in 1.0 mi NE 25.3 mph 35.7 mph 0.15 in Snow Light Snow
9:02 PM 33.8 °F 20.5 °F 30.2 °F 87% 29.63 in 2.0 mi NE 27.6 mph 35.7 mph 0.01 in Snow Light Snow
9:28 PM 33.8 °F 21.3 °F 30.2 °F 87% 29.60 in 3.0 mi NE 24.2 mph 33.4 mph 0.06 in Rain Light Freezing Rain
9:53 PM 33.1 °F 19.6 °F 32.0 °F 96% 29.61 in 3.0 mi NE 27.6 mph 35.7 mph 0.10 in Rain Light Freezing Rain
10:53 PM 33.1 °F 20.9 °F 32.0 °F 96% 29.56 in 3.0 mi NE 21.9 mph 33.4 mph 0.11 in Rain Light Freezing Rain
11:53 PM 33.1 °F 20.1 °F 32.0 °F 96% 29.51 in 3.0 mi ENE 25.3 mph 33.4 mph 0.09 in Rain Light Freezing Rain